Погода в Нозовке

Погода в Нозовке : погода сейчас, прогноз погоды и архив. Всё, что Вы хотите узнать о погоде в Нозовке!

Поиск расширенной информации на нашем сайте:

Другие новости

Новости СМИ2

Главная страница сайта

Новости сайта

03.07.2017

Напоминаем, что на нашем специализированном сайте Метеоцентр.Азия вы можете получить высокодетализированные автоматические прогнозы погоды по пунктам России, СНГ и мира в авиационном формате (включающие направление и скорость ветра, видимость, явления погоды, количество и форму облачности, нижнюю и верхнюю границу облачности).


Погода в Нозовке - сегодня

Время (UTC), дата Ветер
(°,м/с) 
Видим.   Явления Облачность Т
(°С)
Тd
(°С)
f(%) Тe
(°С)
Pmin
(гПа)
dP
(гПа)
Po
(мм)
O2
(г/м3)
Тmin Tmax R s Состояние
почвы
00 14.02.18 тихо ()   20000 м    ясно 
-21.4 -24 80 -21  1032.8  0.5  761  334           
06 14.02.18 тихо ()   20000 м    ясно 
-16.8 -20.9 70 -17  1034.2  0.6  762  329           
09 14.02.18 250 (З) 20000 м    8/8 2000 м средняя 
[Ac und]
-11.9 -17.4 64 -12  1033.8  762  323           
12 14.02.18 250 (З) 20000 м    6/3 2000 м средняя, верхняя 
[Ac und|Ci fib]
-10 -16 61 -12  1034  0.3  762  320           
18 14.02.18 тихо ()   20000 м    ясно 
-14.1 -16.6 81 -14  1035.1  0.4  763  326           
21 14.02.18 250 (З) 4000 м  слаб. снег  10/10 300 м 
[Ns]
-12.7 -15.1 82 -13  1035.6  0.5  764  324           
00 15.02.18 230 (ЮЗ) 20000 м  {снег}  3/3 2000 м средняя 
[Ac und]
-14.6 -16.5 85 -15  1036  0.3  764  327           
06 15.02.18 240 (ЮЗ) 4000 м  слаб. снег  10/10 300 м 
[Ns]
-11.6 -13.6 85 -14  1037.4  0.8  765  323           
09 15.02.18 230 (ЮЗ) 20000 м  {снег}  8/3 600 м средняя 
[Sc|Ac und]
-6.5 -9.7 78 -9  1037.7  0.7  765  317           
12 15.02.18 240 (ЮЗ) 20000 м  {снег}  8/3 600 м средняя 
[Sc|Ac und]
-4.6 -9.7 67 -7  1037.9  0.3  766  315           
18 15.02.18 230 (ЮЗ) 20000 м    4/4 2000 м средняя 
[Ac und]
-11.4 -13.8 82 -11  1039.6  0.6  767  324           
21 15.02.18 тихо ()   20000 м    3/3 2000 м средняя 
[Ac und]
-13.3 -15.4 84 -13  1040.3  0.6  767  326           
00 16.02.18 250 (З) 20000 м    ясно 
-14.6 -16.4 86 -15  1041.1  0.7  767  328           
06 16.02.18 240 (ЮЗ) 20000 м    ясно 
-14 -16.4 82 -16  1042.5  0.7  769  328  -16.8         
09 16.02.18 240 (ЮЗ) 20000 м    ясно 
-8.9 -14.4 64 -12  1042.3  0.1  769  321           
12 16.02.18 230 (ЮЗ) 20000 м    ясно 
-6.1 -14.3 52 -8  1041.9  -0.2  768  318           
15 16.02.18 тихо ()   20000 м    ясно 
-11.5 -15 75 -12  1042  -0.3  768  325    -6.1       
18 16.02.18 240 (ЮЗ) 20000 м    ясно 
-13.7 -16 83 -14  1041.7  -0.3  768  327           
21 16.02.18 250 (З) 20000 м    ясно 
-14.3 -16 87 -14  1041.6  0.1  768  328           
00 17.02.18 260 (З) 20000 м    ясно 
-14.1 -15.7 88 -14  1041  -0.6  767  327           
06 17.02.18 250 (З) 20000 м    10/10 2000 м 
[Ac As]
-9.4 -11.7 83 -11  1040  -0.4  767  321           
09 17.02.18 240 (ЮЗ) 20000 м    8/8 2000 м средняя 
[Ac und]
-5.5 -11.5 63 -8  1039.1  -0.6  766  316           
12 17.02.18 220 (ЮЗ) 20000 м    3/3 2000 м средняя 
[Ac und]
-5.7 -10.7 68 -7  1038.3  -0.8  766  316           
18 17.02.18 230 (ЮЗ) 20000 м    ясно 
-11.1 -12.7 88 -11  1037.9  -0.4  765  323           
21 17.02.18 тихо ()   20000 м    ясно 
-11.2 -13.1 86 -11  1037.5  -0.5  765  323           
Время (UTC), дата Ветер
(°,м/с) 
Видим.   Явления Облачность Т
(°С)
Тd
(°С)
f(%) Тe
(°С)
Pmin
(гПа)
dP
(гПа)
Po
(мм)
O2
(г/м3)
Тmin Tmax R s Состояние
почвы

Для получения пояснительной информации подведите курсор к названию столбца.

ПОГОДА в Нозовке - архив

Всё, что Вы хотите узнать о погоде в Нозовке - удобно и подробно!

Выберите нужную дату (начиная с 1 января 2015* года) и нажмите кнопку "Найти".
Будут отображены архивные сводки погоды по пункту Нозовка, начиная с указанной даты.


Отображать данные в формате CSV (для использования в таблицах Excel)


Внимание! Наш архив погоды предназначен исключительно для личного некоммерческого использования в познавательных целях. Если Вам необходимы официальные справки о состоянии погоды (для производственных, юридических, коммерческих и т.п. целей), обращайтесь в органы Росгидромета.

*Примечание: данная дата относится к архиву по метеостанциям СССР (Россия, СНГ, Балтия).
Архив по метеостанциям Зарубежной Европы и Азии (кроме Китая) хранится 10 дней, по другим регионам земного шара (Китай, Африка, Америка, Австралия, Океания) - 1 день.

Нозовка - район местоположения метеостанции


Название, широта, долгота, высота метеостанции:
Нозовка 57.1°ш. 54.8°д. 131 м над ур. моря [Российская Федерация]

Дополнительная информация

В oтличие oт бoльшинства пoгoдных сайтoв мы публикуем пoдрoбную метеoинфoрмацию в детальнoм прoфессиoнальнoм фoрмате.

Характеристики температуры и влажнoсти вoздуха измеряются на высoте 2 м в тени вдали oт зданий и деревьев.
Скoрoсть ветра измеряется на высoте 10 м (на урoвне рoста челoвека скoрoсть ветра ниже в 1.5-2 раза). Если метеoстанция нахoдится в гoрoде или в лесу, тo скoрoсть ветра занижена на 2-4 м/с пo сравнению с oткрытым местoм. Скoрoсть ветра над акватoриями крупных рек и oзёр, а также на вершинах хoлмoв на 2-5 м/с выше, чем в oбычных услoвиях.
Атмoсфернoе давление в разных тoчках местнoсти мoжет значительнo oтличаться oт давления на метеoстанции, в зависимoсти oт услoвий рельефа (при пoдъёме на 10 м давление пoнижается примернo на 1 мм рт.ст.).